ARIANE 5 DEB (SYLDA), 49334

Orbit data source: Space-Track

ARIANE 5 DEB (SYLDA), 49334 is space debris in HEO originally from a launch on Sun, 24 Oct 2021 UTC launched from the French Guiana (FRGUI). Debris objects in space refer to the collection of defunct objects orbiting the Earth. Examples of debris include non-operational satellites, rocket bodies, and fragments generated from explosions, collisions, or faulty payload assembly.

Loading next visibility...
Identifier
49334, 2021-095C
Orbit
HEO
Last TLE update
23 hours ago
Origin
Manufacturer
ADS/Bremen
Mission
Spacecraft
Bus & Motor
SYLDA 5, Unknown motor
Mass
440 kg wet, 440 kg dry
Launch date (UTC)
2021-10-24 (4 years ago)
Launch vehicle
Unknown
Launch site
French Guiana (FRGUI)
Object type
Payload
Rocket body
Debris
Shape & HBR
Cyl, 5.5 m
Radar Cross Section
27.391 m², Large (>1 m²)

Expand to show TLE details & history

TLE from 23 hours ago
0 ARIANE 5 DEB (SYLDA)
1 49334U 21095C   25187.15702624  .00124011  00000-0  76277-2 0  9990
2 49334   6.0191 176.5068 6171172 320.9748   7.6526  3.83781091 41105
Epoch: 2025-07-06T03:46Z
TLE epoch observation values (Epoch: 2025-07-06T03:46:07.067Z)
Latitude
-0.00004°
Longitude
-164.36339°
Altitude
834.654 km
Speed
9.348 km/s
True Right ascension
11h 46m 12s
True Declination
0° 00' 00"
Sunlit
Object was in daylight at epoch
Visualization orbit readout
Latitude
0.15179°
Longitude
13.39972°
Altitude
14,891.945 km
Speed
3.787 km/s
Apparent Right ascension
00h 14m 58s
Apparent Declination
-9° 20' 01"
Sunlit
Object is in daylight
Visualization observer readout
Local Sidereal Time
15:16:18
Azimuth
65.442° ENE
Elevation
-39.5°
Doppler factor
1
Orbital elements
Apogee altitude
21,497.058 km
Perigee altitude
221.838 km
Semi-major axis
17,237.585 km
Eccentricity
0.61712
Inclination
6.0191°
RAAN
176.5068°
Arg. of periapsis
320.9748°
True anomaly
Unknown
Mean anomaly
7.6526°
Eccentric anomaly
Unknown
Mean motion
0.95902 °/min
Orbital period
375.38 mins
BSTAR
0.0076277
Loading maneuver chart data...
Loading SW <> Apogee altitude chart data...
Loading historical data...
Loading historical data...
Loading historical data...
Loading historical data...
Loading historical data...
Loading historical data...
Loading historical data...
Other satellites on launch #95 in the year 2021 (2021-10-24 UTC)

ARIANE 5 DEB (SYLDA) Visibility forecast

Observer location: undefined°, undefined°

Span
Click to sort rows by Start time (UTC) header in descending order
Start Az.
Max El. time (UTC)
Max El. Az.
Max El.
End time (UTC)
End Az.
297 mins2025-07-07 05:03:23.211Z223.381° SW2025-07-07 06:04:23.211Z158.827° S33.421°2025-07-07 10:00:23.211Z126.103° SE
|